| time (UTC) | temp F | wind direction | speed knots | gust knots | rain 1hr in | rain 24hr in | rain mn in | humidity % | barometer mb |
| 20260508180046 | 54 | 250 | 3.5 | 4.3 | 0.07 | 0.03 | 0.03 | 74 | 1013.3 |
| 20260508175543 | 54 | 250 | 3.5 | 4.3 | 0.07 | 0.03 | 0.03 | 74 | 1013.3 |
| 20260508175040 | 54 | 250 | 3.5 | 4.3 | 0.07 | 0.03 | 0.03 | 74 | 1013.3 |
| 20260508174538 | 54 | 252 | 5.2 | 8.7 | 0.07 | 0.03 | 0.03 | 73 | 1013.4 |
| 20260508174035 | 53 | 250 | 7.0 | 9.6 | 0.00 | 0.02 | 0.02 | 74 | 1013.2 |
| 20260508173532 | 54 | 254 | 3.5 | 7.0 | 0.05 | 0.02 | 0.02 | 74 | 1013.0 |
| 20260508173027 | 54 | 229 | 7.0 | 7.0 | 0.05 | 0.02 | 0.02 | 72 | 1013.2 |
| 20260508172525 | 54 | 276 | 2.6 | 6.1 | 0.00 | 0.01 | 0.01 | 71 | 1013.1 |
| 20260508172021 | 55 | 111 | 7.0 | 12.2 | 0.07 | 0.01 | 0.01 | 69 | 1013.2 |
| 20260508171518 | 57 | 264 | 4.3 | 12.2 | 0.07 | 0.01 | 0.01 | 63 | 1013.0 |
| 20260508171014 | 57 | 257 | 4.3 | 6.1 | 0.00 | 0.00 | 0.00 | 63 | 1012.9 |
| 20260508170512 | 58 | 263 | 6.1 | 8.7 | 0.00 | 0.00 | 0.00 | 59 | 1012.9 |
| 20260508170009 | 58 | 264 | 6.1 | 8.7 | 0.00 | 0.00 | 0.00 | 58 | 1013.0 |
| 20260508165506 | 59 | 276 | 1.7 | 2.6 | 0.00 | 0.00 | 0.00 | 57 | 1012.8 |
| 20260508165003 | 59 | 253 | 4.3 | 10.4 | 0.00 | 0.00 | 0.00 | 55 | 1012.8 |
| 20260508164459 | 59 | 263 | 4.3 | 10.4 | 0.00 | 0.00 | 0.00 | 54 | 1012.9 |
| 20260508163956 | 58 | 263 | 2.6 | 9.6 | 0.00 | 0.00 | 0.00 | 58 | 1013.1 |
| 20260508163454 | 59 | 249 | 2.6 | 9.6 | 0.00 | 0.00 | 0.00 | 55 | 1013.0 |
| 20260508162949 | 59 | 243 | 4.3 | 12.2 | 0.00 | 0.00 | 0.00 | 57 | 1012.9 |
| 20260508162447 | 58 | 220 | 2.6 | 7.0 | 0.00 | 0.00 | 0.00 | 57 | 1012.9 |
| 20260508161944 | 58 | 220 | 3.5 | 4.3 | 0.00 | 0.00 | 0.00 | 57 | 1013.1 |
| 20260508161441 | 58 | 289 | 3.5 | 10.4 | 0.00 | 0.00 | 0.00 | 58 | 1013.1 |
| 20260508160938 | 58 | 243 | 4.3 | 10.4 | 0.00 | 0.00 | 0.00 | 56 | 1013.2 |
| 20260508160438 | 58 | 239 | 11.3 | 16.5 | 0.00 | 0.00 | 0.00 | 55 | 1013.2 |
| 20260508155933 | 58 | 289 | 8.7 | 12.2 | 0.00 | 0.00 | 0.00 | 57 | 1013.2 |
| 20260508155430 | 58 | 318 | 2.6 | 7.0 | 0.00 | 0.00 | 0.00 | 58 | 1013.4 |
| 20260508154927 | 58 | 326 | 3.5 | 4.3 | 0.00 | 0.00 | 0.00 | 56 | 1013.3 |
| 20260508154424 | 57 | 250 | 8.7 | 10.4 | 0.00 | 0.00 | 0.00 | 57 | 1013.3 |
| 20260508153921 | 57 | 249 | 4.3 | 7.0 | 0.00 | 0.00 | 0.00 | 56 | 1013.3 |
| 20260508153418 | 57 | 261 | 2.6 | 4.3 | 0.00 | 0.00 | 0.00 | 56 | 1013.5 |
| 20260508152914 | 57 | 157 | 7.8 | 10.4 | 0.00 | 0.00 | 0.00 | 57 | 1013.4 |
| 20260508152411 | 57 | 308 | 3.5 | 3.5 | 0.00 | 0.00 | 0.00 | 57 | 1013.4 |
| 20260508151907 | 57 | 241 | 4.3 | 8.7 | 0.00 | 0.00 | 0.00 | 56 | 1013.3 |
| 20260508151404 | 56 | 287 | 0.9 | 4.3 | 0.00 | 0.00 | 0.00 | 59 | 1013.8 |
| 20260508150900 | 56 | 252 | 3.5 | 8.7 | 0.00 | 0.00 | 0.00 | 58 | 1013.4 |
| 20260508150357 | 57 | 295 | 8.7 | 9.6 | 0.00 | 0.00 | 0.00 | 55 | 1013.5 |
| 20260508145853 | 57 | 264 | 5.2 | 6.1 | 0.00 | 0.00 | 0.00 | 56 | 1013.5 |
| 20260508145350 | 57 | 282 | 4.3 | 9.6 | 0.00 | 0.00 | 0.00 | 57 | 1013.3 |
| 20260508144846 | 57 | 296 | 2.6 | 4.3 | 0.00 | 0.00 | 0.00 | 57 | 1013.7 |
| 20260508144345 | 58 | 268 | 6.1 | 7.0 | 0.00 | 0.00 | 0.00 | 55 | 1013.4 |
| 20260508143842 | 56 | 275 | 0.9 | 3.5 | 0.00 | 0.00 | 0.00 | 58 | 1013.4 |
| 20260508143339 | 56 | 350 | 1.7 | 2.6 | 0.00 | 0.00 | 0.00 | 57 | 1013.7 |
| 20260508142835 | 55 | 245 | 5.2 | 8.7 | 0.00 | 0.00 | 0.00 | 58 | 1013.8 |
| 20260508142332 | 56 | 248 | 3.5 | 8.7 | 0.00 | 0.00 | 0.00 | 56 | 1013.5 |
| 20260508141829 | 55 | 265 | 2.6 | 4.3 | 0.00 | 0.00 | 0.00 | 57 | 1013.5 |
| 20260508141326 | 55 | 256 | 6.1 | 6.1 | 0.00 | 0.00 | 0.00 | 57 | 1013.5 |
| 20260508140823 | 55 | 244 | 4.3 | 12.2 | 0.00 | 0.00 | 0.00 | 57 | 1013.4 |
| 20260508140320 | 56 | 315 | 2.6 | 4.3 | 0.00 | 0.00 | 0.00 | 56 | 1013.7 |
| 20260508135816 | 55 | 283 | 5.2 | 10.4 | 0.00 | 0.00 | 0.00 | 57 | 1013.8 |
| 20260508135312 | 55 | 10 | 4.3 | 7.0 | 0.00 | 0.00 | 0.00 | 55 | 1013.7 |
| 20260508134808 | 54 | 208 | 1.7 | 7.0 | 0.00 | 0.00 | 0.00 | 58 | 1013.7 |
| 20260508134305 | 53 | 298 | 3.5 | 6.1 | 0.00 | 0.00 | 0.00 | 57 | 1013.9 |
| 20260508133802 | 53 | 274 | 3.5 | 7.0 | 0.00 | 0.00 | 0.00 | 59 | 1013.9 |
| 20260508133300 | 53 | 300 | 4.3 | 7.0 | 0.00 | 0.00 | 0.00 | 58 | 1014.0 |
| 20260508132757 | 53 | 200 | 2.6 | 8.7 | 0.00 | 0.00 | 0.00 | 61 | 1013.9 |
| 20260508132254 | 52 | 297 | 1.7 | 8.7 | 0.00 | 0.00 | 0.00 | 59 | 1013.9 |
| 20260508131750 | 52 | 205 | 7.8 | 9.6 | 0.00 | 0.00 | 0.00 | 59 | 1014.1 |
| 20260508131246 | 52 | 279 | 7.0 | 13.0 | 0.00 | 0.00 | 0.00 | 57 | 1013.9 |
| 20260508130743 | 52 | 222 | 2.6 | 7.0 | 0.00 | 0.00 | 0.00 | 59 | 1013.8 |
| 20260508130241 | 53 | 290 | 8.7 | 10.4 | 0.00 | 0.00 | 0.00 | 58 | 1013.8 |
| 20260508125736 | 52 | 204 | 2.6 | 7.0 | 0.00 | 0.00 | 0.00 | 61 | 1013.8 |
| 20260508125232 | 51 | 276 | 1.7 | 3.5 | 0.00 | 0.00 | 0.00 | 63 | 1014.0 |
| 20260508124731 | 51 | 258 | 1.7 | 6.1 | 0.00 | 0.00 | 0.00 | 64 | 1013.9 |
| 20260508124227 | 51 | 202 | 0.9 | 3.5 | 0.00 | 0.00 | 0.00 | 65 | 1014.0 |
| 20260508123726 | 52 | 276 | 2.6 | 4.3 | 0.00 | 0.00 | 0.00 | 64 | 1014.0 |
| 20260508123224 | 52 | 208 | 5.2 | 7.0 | 0.00 | 0.00 | 0.00 | 62 | 1013.8 |
| 20260508122719 | 52 | 249 | 4.3 | 10.4 | 0.00 | 0.00 | 0.00 | 63 | 1013.8 |
| 20260508122216 | 51 | 279 | 4.3 | 7.0 | 0.00 | 0.00 | 0.00 | 64 | 1013.4 |
| 20260508121714 | 51 | 293 | 7.0 | 8.7 | 0.00 | 0.00 | 0.00 | 65 | 1013.4 |
| 20260508121213 | 51 | 219 | 3.5 | 4.3 | 0.00 | 0.00 | 0.00 | 68 | 1013.4 |
| 20260508120709 | 50 | 221 | 3.5 | 4.3 | 0.00 | 0.00 | 0.00 | 68 | 1013.5 |
| 20260508120208 | 50 | 259 | 1.7 | 3.5 | 0.00 | 0.00 | 0.00 | 70 | 1013.5 |
| 20260508115705 | 50 | 233 | 0.9 | 6.1 | 0.00 | 0.00 | 0.00 | 69 | 1013.4 |
| 20260508115202 | 49 | 122 | 0.9 | 2.6 | 0.00 | 0.00 | 0.00 | 71 | 1013.3 |
| 20260508114658 | 49 | 260 | 0.9 | 3.5 | 0.00 | 0.00 | 0.00 | 72 | 1013.4 |
| 20260508114155 | 48 | 233 | 2.6 | 4.3 | 0.00 | 0.00 | 0.00 | 73 | 1013.2 |
| 20260508113652 | 48 | 231 | 0.9 | 2.6 | 0.00 | 0.00 | 0.00 | 77 | 1013.4 |
| 20260508113150 | 48 | 244 | 0.9 | 2.6 | 0.00 | 0.00 | 0.00 | 75 | 1013.2 |
| 20260508112646 | 47 | 254 | 0.9 | 0.9 | 0.00 | 0.00 | 0.00 | 76 | 1013.2 |
| 20260508112143 | 47 | 269 | 0.0 | 0.9 | 0.00 | 0.00 | 0.00 | 76 | 1013.2 |
| 20260508111639 | 47 | 268 | 4.3 | 6.1 | 0.00 | 0.00 | 0.00 | 75 | 1013.4 |
| 20260508111137 | 47 | 107 | 0.9 | 0.9 | 0.00 | 0.00 | 0.00 | 77 | 1013.3 |
| 20260508110635 | 47 | 162 | 0.9 | 2.6 | 0.00 | 0.00 | 0.00 | 76 | 1013.3 |
| 20260508110131 | 48 | 265 | 4.3 | 10.4 | 0.00 | 0.00 | 0.00 | 73 | 1013.8 |
| 20260508105626 | 48 | 233 | 4.3 | 9.6 | 0.00 | 0.00 | 0.00 | 73 | 1013.8 |
| 20260508105123 | 48 | 273 | 3.5 | 4.3 | 0.00 | 0.00 | 0.00 | 70 | 1013.7 |
| 20260508104621 | 48 | 308 | 0.9 | 2.6 | 0.00 | 0.00 | 0.00 | 70 | 1013.3 |
| 20260508104117 | 47 | 269 | 2.6 | 3.5 | 0.00 | 0.00 | 0.00 | 70 | 1013.2 |
| 20260508103614 | 47 | 231 | 1.7 | 2.6 | 0.00 | 0.00 | 0.00 | 71 | 1013.2 |
| 20260508103111 | 47 | 274 | 3.5 | 6.1 | 0.00 | 0.00 | 0.00 | 70 | 1013.2 |
| 20260508102609 | 47 | 234 | 1.7 | 7.0 | 0.00 | 0.00 | 0.00 | 70 | 1013.0 |
| 20260508102106 | 46 | 285 | 3.5 | 6.1 | 0.00 | 0.00 | 0.00 | 71 | 1013.2 |
| 20260508101604 | 46 | 174 | 2.6 | 3.5 | 0.00 | 0.00 | 0.00 | 73 | 1013.0 |
| 20260508101101 | 46 | 227 | 0.9 | 2.6 | 0.00 | 0.00 | 0.00 | 73 | 1013.3 |
| 20260508100559 | 46 | 221 | 0.0 | 0.9 | 0.00 | 0.00 | 0.00 | 73 | 1013.1 |
| 20260508100055 | 46 | 262 | 0.0 | 0.9 | 0.00 | 0.00 | 0.00 | 72 | 1013.1 |
| 20260508095552 | 46 | 265 | 0.9 | 2.6 | 0.00 | 0.00 | 0.00 | 72 | 1013.0 |
| 20260508095049 | 46 | 239 | 0.9 | 2.6 | 0.00 | 0.00 | 0.00 | 72 | 1013.1 |
| 20260508094547 | 46 | 222 | 2.6 | 3.5 | 0.00 | 0.00 | 0.00 | 72 | 1013.4 |
| 20260508094043 | 46 | 279 | 0.0 | 6.1 | 0.00 | 0.00 | 0.00 | 72 | 1013.3 |
| 20260508093540 | 45 | 246 | 2.6 | 6.1 | 0.00 | 0.00 | 0.00 | 72 | 1013.4 |
| 20260508093038 | 45 | 242 | 0.9 | 2.6 | 0.00 | 0.00 | 0.00 | 73 | 1013.1 |
| 20260508092535 | 46 | 255 | 0.9 | 3.5 | 0.00 | 0.00 | 0.00 | 73 | 1013.2 |
| 20260508092034 | 46 | 219 | 0.0 | 0.9 | 0.00 | 0.00 | 0.00 | 74 | 1013.3 |
| 20260508091531 | 46 | 255 | 2.6 | 3.5 | 0.00 | 0.00 | 0.00 | 73 | 1013.3 |
| 20260508091028 | 46 | 254 | 4.3 | 4.3 | 0.00 | 0.00 | 0.00 | 73 | 1013.2 |
| 20260508090526 | 46 | 219 | 0.9 | 0.9 | 0.00 | 0.00 | 0.00 | 73 | 1013.5 |
| 20260508090022 | 46 | 244 | 1.7 | 4.3 | 0.00 | 0.00 | 0.00 | 72 | 1013.2 |
| 20260508085519 | 46 | 251 | 0.9 | 0.9 | 0.00 | 0.00 | 0.00 | 72 | 1013.4 |
| 20260508085016 | 46 | 261 | 2.6 | 4.3 | 0.00 | 0.00 | 0.00 | 72 | 1013.4 |
| 20260508084513 | 46 | 231 | 1.7 | 4.3 | 0.00 | 0.00 | 0.00 | 72 | 1013.4 |
| 20260508084010 | 46 | 211 | 1.7 | 2.6 | 0.00 | 0.00 | 0.00 | 71 | 1013.4 |
| 20260508083507 | 47 | 209 | 1.7 | 2.6 | 0.00 | 0.00 | 0.00 | 71 | 1013.4 |
| 20260508083003 | 47 | 223 | 4.3 | 4.3 | 0.00 | 0.00 | 0.00 | 71 | 1013.5 |
| 20260508082459 | 47 | 223 | 2.6 | 3.5 | 0.00 | 0.00 | 0.00 | 71 | 1013.5 |
| 20260508081957 | 47 | 267 | 1.7 | 2.6 | 0.00 | 0.00 | 0.00 | 71 | 1013.5 |
| 20260508081454 | 47 | 237 | 0.0 | 2.6 | 0.00 | 0.00 | 0.00 | 70 | 1013.5 |
| 20260508080950 | 47 | 221 | 0.9 | 2.6 | 0.00 | 0.00 | 0.00 | 70 | 1013.7 |
| 20260508080448 | 47 | 264 | 1.7 | 2.6 | 0.00 | 0.00 | 0.00 | 70 | 1013.7 |
| 20260508075945 | 47 | 280 | 1.7 | 6.1 | 0.00 | 0.00 | 0.00 | 70 | 1013.5 |
| 20260508075442 | 47 | 232 | 1.7 | 3.5 | 0.00 | 0.00 | 0.00 | 71 | 1013.5 |
| 20260508074939 | 47 | 227 | 3.5 | 4.3 | 0.00 | 0.00 | 0.00 | 71 | 1013.5 |
| 20260508074437 | 48 | 220 | 1.7 | 7.0 | 0.00 | 0.00 | 0.00 | 70 | 1013.5 |
| 20260508073934 | 48 | 212 | 4.3 | 8.7 | 0.00 | 0.00 | 0.00 | 68 | 1013.7 |
| 20260508073431 | 49 | 280 | 4.3 | 10.4 | 0.00 | 0.00 | 0.00 | 66 | 1013.7 |
| 20260508072928 | 49 | 154 | 7.0 | 18.2 | 0.00 | 0.00 | 0.00 | 62 | 1013.7 |
| 20260508072424 | 49 | 255 | 3.5 | 8.7 | 0.00 | 0.00 | 0.00 | 61 | 1013.9 |
| 20260508071921 | 48 | 239 | 6.1 | 8.7 | 0.00 | 0.00 | 0.00 | 61 | 1013.9 |
| 20260508071419 | 48 | 231 | 1.7 | 3.5 | 0.00 | 0.00 | 0.00 | 62 | 1013.8 |
| 20260508070917 | 47 | 237 | 1.7 | 6.1 | 0.00 | 0.00 | 0.00 | 64 | 1013.9 |
| 20260508070415 | 47 | 261 | 2.6 | 3.5 | 0.00 | 0.00 | 0.00 | 64 | 1013.8 |
| 20260508065912 | 47 | 271 | 1.7 | 4.3 | 0.00 | 0.00 | 0.00 | 65 | 1013.7 |
| 20260508065410 | 47 | 227 | 1.7 | 2.6 | 0.00 | 0.00 | 0.00 | 64 | 1013.7 |
| 20260508064908 | 47 | 230 | 0.9 | 0.9 | 0.00 | 0.00 | 0.00 | 64 | 1013.8 |
| 20260508064405 | 46 | 185 | 0.9 | 0.9 | 0.00 | 0.00 | 0.00 | 64 | 1013.5 |
| 20260508063903 | 46 | 186 | 0.0 | 0.9 | 0.00 | 0.00 | 0.00 | 64 | 1013.8 |
| 20260508063400 | 46 | 182 | 2.6 | 2.6 | 0.00 | 0.00 | 0.00 | 64 | 1013.5 |
| 20260508062857 | 46 | 232 | 0.9 | 0.9 | 0.00 | 0.00 | 0.00 | 65 | 1013.7 |
| 20260508062355 | 46 | 235 | 0.0 | 2.6 | 0.00 | 0.00 | 0.00 | 66 | 1014.0 |
| 20260508061852 | 46 | 235 | 0.9 | 2.6 | 0.00 | 0.00 | 0.00 | 66 | 1013.8 |
| 20260508061349 | 46 | 223 | 0.0 | 0.9 | 0.00 | 0.00 | 0.00 | 64 | 1013.8 |
| 20260508060845 | 46 | 222 | 0.9 | 0.9 | 0.00 | 0.00 | 0.00 | 64 | 1013.8 |
| 20260508060343 | 47 | 222 | 0.9 | 2.6 | 0.00 | 0.00 | 0.00 | 64 | 1013.8 |
| 20260508055838 | 47 | 225 | 0.9 | 0.9 | 0.00 | 0.00 | 0.00 | 62 | 1013.8 |
| 20260508055336 | 47 | 226 | 0.9 | 0.9 | 0.00 | 0.00 | 0.00 | 62 | 1013.8 |
| 20260508054832 | 47 | 235 | 0.9 | 0.9 | 0.00 | 0.00 | 0.00 | 63 | 1013.9 |
| 20260508054330 | 47 | 234 | 0.9 | 2.6 | 0.00 | 0.00 | 0.00 | 62 | 1014.0 |
| 20260508053826 | 47 | 220 | 0.9 | 0.9 | 0.00 | 0.00 | 0.00 | 62 | 1014.1 |
| 20260508053324 | 47 | 221 | 0.9 | 2.6 | 0.00 | 0.00 | 0.00 | 60 | 1014.2 |
| 20260508052821 | 47 | 214 | 0.0 | 0.9 | 0.00 | 0.00 | 0.00 | 62 | 1014.1 |
| 20260508052318 | 47 | 213 | 0.0 | 0.0 | 0.00 | 0.00 | 0.00 | 61 | 1014.2 |
| 20260508051815 | 47 | 213 | 0.0 | 0.0 | 0.00 | 0.00 | 0.00 | 62 | 1014.3 |
| 20260508051310 | 47 | 213 | 0.9 | 2.6 | 0.00 | 0.00 | 0.00 | 61 | 1014.4 |
| 20260508050807 | 47 | 218 | 0.9 | 0.9 | 0.00 | 0.00 | 0.00 | 61 | 1014.4 |
| 20260508050304 | 47 | 201 | 0.0 | 0.0 | 0.00 | 0.00 | 0.00 | 61 | 1014.3 |
| 20260508045759 | 47 | 274 | 0.0 | 0.9 | 0.00 | 0.00 | 0.00 | 62 | 1014.4 |
| 20260508045257 | 47 | 281 | 0.0 | 0.9 | 0.00 | 0.00 | 0.00 | 63 | 1014.3 |
| 20260508044755 | 47 | 219 | 2.6 | 3.5 | 0.00 | 0.00 | 0.00 | 62 | 1014.4 |
| 20260508044251 | 47 | 253 | 0.9 | 3.5 | 0.00 | 0.00 | 0.00 | 63 | 1014.4 |
| 20260508043747 | 47 | 261 | 0.0 | 0.9 | 0.00 | 0.00 | 0.00 | 63 | 1014.3 |
| 20260508043245 | 47 | 270 | 0.9 | 2.6 | 0.00 | 0.00 | 0.00 | 62 | 1014.2 |
| 20260508042741 | 47 | 219 | 2.6 | 4.3 | 0.00 | 0.00 | 0.00 | 62 | 1014.4 |
| 20260508042239 | 46 | 316 | 0.0 | 3.5 | 0.00 | 0.00 | 0.00 | 64 | 1014.4 |
| 20260508041735 | 46 | 291 | 0.9 | 2.6 | 0.00 | 0.00 | 0.00 | 64 | 1014.4 |
| 20260508041232 | 45 | 285 | 3.5 | 8.7 | 0.00 | 0.00 | 0.00 | 66 | 1014.2 |
| 20260508040728 | 43 | 224 | 2.6 | 4.3 | 0.00 | 0.00 | 0.00 | 72 | 1014.4 |
| 20260508040226 | 42 | 307 | 0.9 | 0.9 | 0.00 | 0.00 | 0.00 | 78 | 1014.2 |
| 20260508035723 | 41 | 308 | 0.9 | 0.9 | 0.00 | 0.00 | 0.00 | 80 | 1014.3 |
| 20260508035221 | 41 | 308 | 0.0 | 0.0 | 0.00 | 0.00 | 0.00 | 79 | 1014.4 |
| 20260508034717 | 41 | 308 | 0.0 | 0.0 | 0.00 | 0.00 | 0.00 | 77 | 1014.3 |
| 20260508034215 | 41 | 308 | 0.0 | 0.0 | 0.00 | 0.00 | 0.00 | 77 | 1014.3 |
| 20260508033711 | 40 | 307 | 1.7 | 0.9 | 0.00 | 0.00 | 0.00 | 79 | 1014.4 |
| 20260508033210 | 40 | 309 | 0.9 | 0.9 | 0.00 | 0.00 | 0.00 | 83 | 1014.2 |
| 20260508032707 | 40 | 309 | 0.0 | 0.0 | 0.00 | 0.00 | 0.00 | 82 | 1014.3 |
| 20260508032204 | 40 | 310 | 0.0 | 0.0 | 0.00 | 0.00 | 0.00 | 83 | 1014.2 |
| 20260508031701 | 40 | 310 | 0.0 | 0.0 | 0.00 | 0.00 | 0.00 | 83 | 1014.2 |
| 20260508031156 | 40 | 310 | 0.0 | 0.0 | 0.00 | 0.00 | 0.00 | 82 | 1014.2 |
| 20260508030653 | 40 | 310 | 0.0 | 0.0 | 0.00 | 0.00 | 0.00 | 80 | 1014.2 |
| 20260508030151 | 40 | 309 | 0.0 | 0.0 | 0.00 | 0.00 | 0.00 | 79 | 1014.1 |
| 20260508025647 | 40 | 309 | 0.0 | 0.0 | 0.00 | 0.00 | 0.00 | 76 | 1014.3 |
| 20260508025144 | 40 | 310 | 0.0 | 0.0 | 0.00 | 0.00 | 0.00 | 75 | 1014.2 |
| 20260508024640 | 41 | 309 | 0.0 | 0.0 | 0.00 | 0.00 | 0.00 | 74 | 1014.2 |
| 20260508024137 | 41 | 309 | 0.0 | 0.0 | 0.00 | 0.00 | 0.00 | 73 | 1014.3 |
| 20260508023633 | 42 | 309 | 0.0 | 0.0 | 0.00 | 0.00 | 0.00 | 73 | 1014.3 |
| 20260508023132 | 42 | 309 | 0.0 | 0.0 | 0.00 | 0.00 | 0.00 | 73 | 1014.2 |
| 20260508022627 | 41 | 309 | 0.0 | 0.9 | 0.00 | 0.00 | 0.00 | 74 | 1014.3 |
| 20260508022124 | 41 | 310 | 0.0 | 0.0 | 0.00 | 0.00 | 0.00 | 72 | 1014.2 |
| 20260508021620 | 41 | 309 | 0.0 | 0.0 | 0.00 | 0.00 | 0.00 | 72 | 1014.1 |
| 20260508021116 | 42 | 309 | 0.0 | 0.0 | 0.00 | 0.00 | 0.00 | 71 | 1014.3 |
| 20260508020614 | 42 | 310 | 0.0 | 0.0 | 0.00 | 0.00 | 0.00 | 73 | 1014.2 |
| 20260508020111 | 43 | 310 | 0.0 | 0.0 | 0.00 | 0.00 | 0.00 | 70 | 1014.2 |
| 20260508015609 | 43 | 310 | 0.0 | 0.0 | 0.00 | 0.00 | 0.00 | 66 | 1014.2 |
| 20260508015105 | 43 | 310 | 0.0 | 0.0 | 0.00 | 0.00 | 0.00 | 65 | 1014.0 |
| 20260508014601 | 43 | 309 | 0.0 | 0.0 | 0.00 | 0.00 | 0.00 | 63 | 1014.0 |
| 20260508014058 | 44 | 309 | 0.0 | 0.0 | 0.00 | 0.00 | 0.00 | 63 | 1014.1 |
| 20260508013554 | 45 | 310 | 0.0 | 0.0 | 0.00 | 0.00 | 0.00 | 63 | 1014.1 |
| 20260508013051 | 45 | 310 | 0.0 | 0.0 | 0.00 | 0.00 | 0.00 | 58 | 1014.2 |
| 20260508012548 | 45 | 309 | 0.0 | 0.0 | 0.00 | 0.00 | 0.00 | 54 | 1014.1 |
| 20260508012046 | 46 | 310 | 0.0 | 0.0 | 0.00 | 0.00 | 0.00 | 54 | 1014.0 |
| 20260508011544 | 46 | 310 | 0.0 | 0.0 | 0.00 | 0.00 | 0.00 | 54 | 1014.0 |
| 20260508011041 | 46 | 310 | 0.0 | 0.0 | 0.00 | 0.00 | 0.00 | 53 | 1014.1 |
| 20260508010538 | 47 | 309 | 0.0 | 0.0 | 0.00 | 0.00 | 0.00 | 50 | 1014.0 |
| 20260508010035 | 48 | 310 | 0.0 | 0.0 | 0.00 | 0.00 | 0.00 | 49 | 1014.0 |
| 20260508005532 | 48 | 310 | 0.0 | 0.0 | 0.00 | 0.00 | 0.00 | 47 | 1013.9 |
| 20260508005028 | 49 | 309 | 0.0 | 0.0 | 0.00 | 0.00 | 0.00 | 44 | 1013.8 |
| 20260508004524 | 50 | 309 | 0.0 | 0.9 | 0.00 | 0.00 | 0.00 | 43 | 1013.7 |
| 20260508004021 | 50 | 309 | 0.0 | 0.9 | 0.00 | 0.00 | 0.00 | 43 | 1013.9 |
| 20260508003518 | 51 | 309 | 0.0 | 0.9 | 0.00 | 0.00 | 0.00 | 43 | 1013.7 |
| 20260508003015 | 51 | 319 | 2.6 | 2.6 | 0.00 | 0.00 | 0.00 | 40 | 1013.7 |
| 20260508002511 | 51 | 345 | 3.5 | 4.3 | 0.00 | 0.00 | 0.00 | 40 | 1013.5 |
| 20260508002009 | 51 | 357 | 2.6 | 4.3 | 0.00 | 0.00 | 0.00 | 39 | 1013.5 |
| 20260508001504 | 52 | 352 | 1.7 | 3.5 | 0.00 | 0.00 | 0.00 | 39 | 1013.5 |
| 20260508001001 | 52 | 355 | 1.7 | 2.6 | 0.00 | 0.00 | 0.00 | 39 | 1013.5 |
| 20260508000457 | 52 | 341 | 2.6 | 3.5 | 0.00 | 0.00 | 0.00 | 37 | 1013.4 |
| 20260507235954 | 52 | 285 | 4.3 | 4.3 | 0.00 | 0.00 | 0.00 | 38 | 1013.2 |
| 20260507235450 | 53 | 332 | 0.9 | 6.1 | 0.00 | 0.00 | 0.00 | 38 | 1013.3 |
| 20260507234948 | 53 | 331 | 5.2 | 9.6 | 0.00 | 0.00 | 0.00 | 37 | 1013.1 |
| 20260507234444 | 53 | 344 | 1.7 | 7.0 | 0.00 | 0.00 | 0.00 | 37 | 1013.1 |
| 20260507233941 | 53 | 313 | 4.3 | 4.3 | 0.00 | 0.00 | 0.00 | 37 | 1013.1 |
| 20260507233438 | 53 | 295 | 4.3 | 6.1 | 0.00 | 0.00 | 0.00 | 36 | 1012.9 |
| 20260507232937 | 54 | 306 | 5.2 | 10.4 | 0.00 | 0.00 | 0.00 | 36 | 1013.0 |
| 20260507232432 | 54 | 307 | 2.6 | 6.1 | 0.00 | 0.00 | 0.00 | 38 | 1013.1 |
| 20260507231930 | 54 | 357 | 1.7 | 3.5 | 0.00 | 0.00 | 0.00 | 39 | 1013.0 |
| 20260507231426 | 54 | 300 | 3.5 | 8.7 | 0.00 | 0.00 | 0.00 | 37 | 1013.2 |
| 20260507230923 | 55 | 279 | 2.6 | 3.5 | 0.00 | 0.00 | 0.00 | 36 | 1013.2 |
| 20260507230420 | 55 | 267 | 3.5 | 3.5 | 0.00 | 0.00 | 0.00 | 37 | 1013.1 |
| 20260507225920 | 55 | 307 | 1.7 | 4.3 | 0.00 | 0.00 | 0.00 | 37 | 1012.9 |
| 20260507225417 | 55 | 249 | 6.1 | 6.1 | 0.00 | 0.00 | 0.00 | 40 | 1013.1 |
| 20260507224913 | 55 | 14 | 3.5 | 4.3 | 0.00 | 0.00 | 0.00 | 40 | 1012.9 |
| 20260507224409 | 54 | 256 | 2.6 | 4.3 | 0.00 | 0.00 | 0.00 | 42 | 1013.1 |
| 20260507223906 | 54 | 343 | 8.7 | 9.6 | 0.00 | 0.00 | 0.00 | 41 | 1013.3 |
| 20260507223402 | 54 | 335 | 4.3 | 12.2 | 0.00 | 0.00 | 0.00 | 42 | 1013.3 |
| 20260507222859 | 54 | 326 | 4.3 | 10.4 | 0.00 | 0.00 | 0.00 | 43 | 1013.3 |
| 20260507222356 | 54 | 275 | 4.3 | 15.6 | 0.00 | 0.00 | 0.00 | 44 | 1013.1 |
| 20260507221853 | 54 | 342 | 7.8 | 12.2 | 0.00 | 0.00 | 0.00 | 42 | 1013.0 |
| 20260507221349 | 54 | 292 | 5.2 | 10.4 | 0.00 | 0.00 | 0.00 | 44 | 1013.3 |
| 20260507220845 | 54 | 313 | 1.7 | 6.1 | 0.00 | 0.00 | 0.00 | 47 | 1013.0 |
| 20260507220344 | 54 | 331 | 4.3 | 16.5 | 0.00 | 0.00 | 0.00 | 47 | 1013.1 |
| 20260507215839 | 54 | 331 | 3.5 | 7.0 | 0.00 | 0.00 | 0.00 | 47 | 1012.9 |
| 20260507215336 | 55 | 315 | 5.2 | 10.4 | 0.00 | 0.00 | 0.00 | 45 | 1012.8 |
| 20260507214833 | 56 | 329 | 4.3 | 9.6 | 0.00 | 0.00 | 0.00 | 43 | 1012.5 |
| 20260507214331 | 56 | 344 | 3.5 | 10.4 | 0.00 | 0.00 | 0.00 | 41 | 1012.6 |